Tracking 30995 objects as of 5-Jul-2025
HD Live streaming from Space Station
objects crossing your sky now

WEOS

Track WEOS now!
10-day predictions
WEOS is classified as:


NORAD ID: 27599
Int'l Code: 2002-056C
Perigee: 790.6 km
Apogee: 802.9 km
Inclination: 98.8 °
Period: 100.7 minutes
Semi major axis: 7167 km
RCS: 0.3299 m2 (medium)
Launch date: December 14, 2002
Source: Japan (JPN)
Launch site: TANEGASHIMA SPACE CENTER (TNSTA)
Your satellite tracking list
STARLINK-4148
Track 1 satellite(s)




NASA's NSSDC Master Catalog

Two Line Element Set (TLE):
1 27599U 02056C   25186.49121998  .00000137  00000-0  69868-4 0  9992
2 27599  98.7649 145.3963 0008576 244.8395 115.1898 14.30647578176775
Source of the keplerian elements: AFSPC